W5ZYX Weather Reports


time (UTC)temp
C
wind
direction
speed
KPH
gust
KPH
rain 1hr
cm
rain 24hr
cm
rain mn
cm
humidity
%
barometer
mb
20260506110536 22 0 0.0 0.0 0.00 0.00 0.00 92 1009.8
20260506110046 22 0 0.0 0.0 0.00 0.00 0.00 92 1009.7
20260506105536 22 0 0.0 0.0 0.00 0.00 0.00 92 1009.7
20260506105040 22 0 0.0 0.0 0.00 0.00 0.00 92 1009.6
20260506104610 23 0 0.0 0.0 0.00 0.00 0.00 92 1009.4
20260506104039 23 0 0.0 0.0 0.00 0.00 0.00 92 1009.4
20260506103540 23 0 0.0 0.0 0.00 0.00 0.00 92 1009.3
20260506103046 23 0 0.0 0.0 0.00 0.00 0.00 92 1009.4
20260506102537 23 0 0.0 0.0 0.00 0.00 0.00 92 1009.4
20260506102038 23 0 0.0 0.0 0.00 0.00 0.00 92 1009.4
20260506101549 23 0 0.0 0.0 0.00 0.00 0.00 92 1009.3
20260506101036 23 0 0.0 0.0 0.00 0.00 0.00 92 1009.3
20260506100538 23 0 0.0 1.6 0.00 0.00 0.00 92 1009.2
20260506100046 23 0 0.0 1.6 0.00 0.00 0.00 92 1009.4
20260506095536 23 0 0.0 0.0 0.00 0.00 0.00 92 1009.2
20260506095035 23 0 0.0 0.0 0.00 0.00 0.00 92 1009.1
20260506094546 23 0 0.0 0.0 0.00 0.00 0.00 92 1009.0
20260506094038 23 0 0.0 0.0 0.00 0.00 0.00 91 1009.2
20260506093539 23 0 0.0 0.0 0.00 0.00 0.00 91 1009.2
20260506093051 23 0 0.0 0.0 0.00 0.00 0.00 91 1009.2
20260506092539 23 0 0.0 0.0 0.00 0.00 0.00 91 1009.2
20260506092039 23 0 0.0 0.0 0.00 0.00 0.00 91 1009.3
20260506091548 23 0 0.0 1.6 0.00 0.00 0.00 91 1009.2
20260506091037 23 0 0.0 4.8 0.00 0.00 0.00 91 1009.2
20260506090539 23 0 0.0 4.8 0.00 0.00 0.00 91 1009.1
20260506090050 23 0 0.0 4.8 0.00 0.00 0.00 91 1009.0
20260506085538 23 174 0.0 0.0 0.00 0.00 0.00 91 1009.1
20260506085036 23 0 0.0 0.0 0.00 0.00 0.00 91 1009.1
20260506084550 23 0 0.0 0.0 0.00 0.00 0.00 91 1009.2
20260506084035 23 0 0.0 0.0 0.00 0.00 0.00 91 1009.1
20260506083536 23 0 0.0 0.0 0.00 0.00 0.00 91 1009.1
20260506083052 23 0 0.0 0.0 0.00 0.00 0.00 91 1009.2
20260506082537 23 0 0.0 0.0 0.00 0.00 0.00 91 1009.1
20260506082036 23 0 0.0 0.0 0.00 0.00 0.00 91 1009.1
20260506081558 23 0 0.0 3.2 0.00 0.00 0.00 91 1009.1
20260506081039 23 0 0.0 9.7 0.00 0.00 0.00 91 1009.1
20260506080536 23 174 1.6 9.7 0.00 0.00 0.00 91 1009.1
20260506073051 23 146 4.8 12.9 0.00 0.00 0.00 91 1009.0
20260506072536 23 148 4.8 11.3 0.00 0.00 0.00 91 1008.9
20260506072040 23 134 6.4 11.3 0.00 0.00 0.00 91 1009.0
20260506071552 23 160 4.8 11.3 0.00 0.00 0.00 91 1009.0
20260506071036 23 159 4.8 14.5 0.00 0.00 0.00 91 1009.1
20260506070536 23 155 6.4 14.5 0.00 0.00 0.00 91 1009.1
20260506062036 23 138 6.4 16.1 0.00 0.00 0.00 90 1009.1
20260506061551 23 115 6.4 12.9 0.00 0.00 0.00 89 1009.3
20260506061039 23 158 4.8 12.9 0.00 0.00 0.00 89 1009.3
20260506060539 23 134 6.4 17.7 0.00 0.00 0.00 89 1009.3
20260506051036 23 147 8.0 19.3 0.00 0.00 0.00 88 1009.5
20260506050536 23 169 8.0 19.3 0.00 0.00 0.00 88 1009.5
20260506045036 24 171 8.0 22.5 0.00 0.00 0.00 87 1009.2
20260506044604 24 175 9.7 22.5 0.00 0.00 0.00 87 1009.1
20260506044037 24 175 6.4 17.7 0.00 0.00 0.00 87 1009.0
20260506043539 24 120 6.4 20.9 0.00 0.00 0.00 87 1009.0
20260506043055 24 138 11.3 20.9 0.00 0.00 0.00 87 1009.0
20260506042539 24 171 11.3 22.5 0.00 0.00 0.00 87 1008.9
20260506042039 24 180 8.0 25.7 0.00 0.00 0.00 86 1009.0
20260506041553 24 190 8.0 25.7 0.00 0.00 0.00 86 1008.9
20260506041036 24 185 8.0 19.3 0.00 0.00 0.00 86 1008.9
20260506040535 25 170 8.0 22.5 0.00 0.00 0.00 86 1008.9
20260506040052 25 153 9.7 22.5 0.00 0.00 0.00 86 1008.8
20260506035536 25 157 11.3 22.5 0.00 0.00 0.00 86 1008.8
20260506035036 25 153 8.0 16.1 0.00 0.00 0.00 86 1008.8
20260506034557 25 169 4.8 19.3 0.00 0.00 0.00 86 1008.7
20260506034036 25 150 8.0 20.9 0.00 0.00 0.00 85 1008.6
20260506033536 25 178 9.7 20.9 0.00 0.00 0.00 85 1008.5
20260506033047 25 178 9.7 19.3 0.00 0.00 0.00 85 1008.5
20260506032536 25 186 8.0 16.1 0.00 0.00 0.00 85 1008.5
20260506032039 25 148 8.0 16.1 0.00 0.00 0.00 85 1008.4
20260506031552 25 165 6.4 24.1 0.00 0.00 0.00 85 1008.3
20260506031039 25 127 8.0 24.1 0.00 0.00 0.00 85 1008.3
20260506030537 25 150 6.4 16.1 0.00 0.00 0.00 86 1008.2
20260506030048 25 190 6.4 14.5 0.00 0.00 0.00 85 1008.2
20260506025535 25 213 6.4 14.5 0.00 0.00 0.00 85 1008.3
20260506025036 25 187 6.4 14.5 0.00 0.00 0.00 85 1008.2
20260506024549 25 170 4.8 11.3 0.00 0.00 0.00 85 1008.0
20260506024036 25 170 4.8 11.3 0.00 0.00 0.00 85 1007.9
20260506023537 25 155 6.4 12.9 0.00 0.00 0.00 85 1007.9
20260506023048 25 198 4.8 12.9 0.00 0.00 0.00 84 1007.8
20260506022536 25 171 4.8 12.9 0.00 0.00 0.00 84 1007.8
20260506022036 25 178 4.8 12.9 0.00 0.00 0.00 84 1007.8
20260506021554 25 164 4.8 12.9 0.00 0.00 0.00 84 1007.7
20260506021036 25 173 4.8 12.9 0.00 0.00 0.00 84 1007.8
20260506020539 25 0 3.2 6.4 0.00 0.00 0.00 83 1007.8
20260506020047 25 175 1.6 8.0 0.00 0.00 0.00 83 1007.8
20260506015539 25 0 1.6 8.0 0.00 0.00 0.00 83 1007.7
20260506015036 25 177 3.2 8.0 0.00 0.00 0.00 83 1007.6
20260506014547 25 172 1.6 11.3 0.00 0.00 0.00 82 1007.6
20260506014036 25 196 0.0 12.9 0.00 0.00 0.00 82 1007.5
20260506013536 25 215 3.2 12.9 0.00 0.00 0.00 82 1007.5
20260506013048 26 191 1.6 12.9 0.00 0.00 0.00 81 1007.4
20260506012539 26 180 4.8 16.1 0.00 0.00 0.00 81 1007.2
20260506012038 26 148 6.4 16.1 0.00 0.00 0.00 81 1007.0
20260506011555 26 153 6.4 12.9 0.00 0.00 0.00 81 1006.9
20260506011038 26 159 4.8 16.1 0.00 0.00 0.00 80 1006.8
20260506010536 26 175 4.8 19.3 0.00 0.00 0.00 80 1006.8
20260506010048 26 161 9.7 19.3 0.00 0.00 0.00 80 1006.8
20260506005539 26 178 8.0 22.5 0.00 0.00 0.00 80 1006.8
20260506005037 26 192 8.0 22.5 0.00 0.00 0.00 80 1006.7
20260506004547 26 160 4.8 14.5 0.00 0.00 0.00 79 1006.7
20260506004036 26 174 6.4 24.1 0.00 0.00 0.00 79 1006.7
20260506003538 26 169 8.0 24.1 0.00 0.00 0.00 79 1006.6
20260506003052 27 203 8.0 20.9 0.00 0.00 0.00 78 1006.6
20260506002536 27 205 8.0 20.9 0.00 0.00 0.00 78 1006.6
20260506002036 27 178 8.0 17.7 0.00 0.00 0.00 78 1006.6
20260506001555 27 188 6.4 16.1 0.00 0.00 0.00 79 1006.5
20260506001038 27 167 3.2 16.1 0.00 0.00 0.00 78 1006.4
20260506000540 27 188 8.0 16.1 0.00 0.00 0.00 78 1006.2
20260506000049 27 167 3.2 16.1 0.00 0.00 0.00 77 1006.2
20260505235539 27 187 6.4 22.5 0.00 0.00 0.00 77 1006.2
20260505235036 27 188 4.8 27.4 0.00 0.00 0.00 77 1006.1
20260505234607 27 171 6.4 32.2 0.00 0.00 0.00 76 1006.2
20260505234037 27 188 8.0 32.2 0.00 0.00 0.00 76 1006.2
20260505233536 27 178 9.7 22.5 0.00 0.00 0.00 76 1006.3
20260505233049 27 169 9.7 24.1 0.00 0.00 0.00 76 1006.3
20260505232538 27 157 11.3 24.1 0.00 0.00 0.00 76 1006.3
20260505232036 27 197 12.9 22.5 0.00 0.00 0.00 76 1006.2
20260505231549 27 170 8.0 25.7 0.00 0.00 0.00 76 1006.1
20260505231040 28 169 8.0 27.4 0.00 0.00 0.00 76 1006.1
20260505230539 28 143 11.3 29.0 0.00 0.00 0.00 75 1006.0
20260505230051 28 184 12.9 29.0 0.00 0.00 0.00 75 1006.0
20260505225540 28 192 11.3 27.4 0.00 0.00 0.00 75 1006.1
20260505225036 28 158 11.3 29.0 0.00 0.00 0.00 74 1006.1
20260505224555 28 186 12.9 33.8 0.00 0.00 0.00 74 1006.3
20260505224039 28 173 12.9 33.8 0.00 0.00 0.00 74 1006.3
20260505223537 28 167 9.7 22.5 0.00 0.00 0.00 74 1006.3
20260505223106 28 153 9.7 22.5 0.00 0.00 0.00 74 1006.3
20260505222536 28 171 8.0 22.5 0.00 0.00 0.00 74 1006.3
20260505222036 28 156 8.0 22.5 0.00 0.00 0.00 75 1006.3
20260505221550 28 200 8.0 22.5 0.00 0.00 0.00 74 1006.4
20260505221039 28 180 9.7 24.1 0.00 0.00 0.00 74 1006.5
20260505220539 28 188 9.7 24.1 0.00 0.00 0.00 74 1006.5
20260505220048 28 163 8.0 29.0 0.00 0.00 0.00 75 1006.5
20260505215537 28 163 9.7 27.4 0.00 0.00 0.00 74 1006.5
20260505215039 28 193 14.5 27.4 0.00 0.00 0.00 74 1006.6
20260505214559 28 155 6.4 24.1 0.00 0.00 0.00 75 1006.7
20260505214037 28 155 11.3 27.4 0.00 0.00 0.00 75 1006.7
20260505213537 28 194 12.9 27.4 0.00 0.00 0.00 74 1006.8
20260505213054 28 224 8.0 25.7 0.00 0.00 0.00 74 1006.8
20260505212536 28 173 8.0 20.9 0.00 0.00 0.00 74 1006.8
20260505212037 28 213 9.7 20.9 0.00 0.00 0.00 74 1006.8
20260505211556 28 107 6.4 25.7 0.00 0.00 0.00 75 1006.7
20260505211036 28 190 12.9 25.7 0.00 0.00 0.00 74 1006.8
20260505210536 28 208 6.4 24.1 0.00 0.00 0.00 74 1007.0
20260505210048 28 162 6.4 27.4 0.00 0.00 0.00 74 1007.0
20260505205536 28 144 11.3 27.4 0.00 0.00 0.00 73 1007.2
20260505205036 28 169 11.3 20.9 0.00 0.00 0.00 74 1007.2
20260505204552 28 179 4.8 14.5 0.00 0.00 0.00 74 1007.3
20260505204036 28 192 8.0 24.1 0.00 0.00 0.00 74 1007.3
20260505203536 28 252 9.7 25.7 0.00 0.00 0.00 74 1007.4
20260505203100 28 190 9.7 25.7 0.00 0.00 0.00 73 1007.5
20260505202536 29 175 8.0 22.5 0.00 0.00 0.00 74 1007.5
20260505202036 29 184 6.4 22.5 0.00 0.00 0.00 74 1007.6
20260505201545 29 184 8.0 20.9 0.00 0.00 0.00 74 1007.6
20260505201037 28 180 6.4 22.5 0.00 0.00 0.00 74 1007.7
20260505200537 28 180 8.0 22.5 0.00 0.00 0.00 74 1007.7
20260505200048 28 194 6.4 22.5 0.00 0.00 0.00 75 1007.8
20260505195537 28 180 6.4 20.9 0.00 0.00 0.00 74 1007.8
20260505195035 28 207 6.4 20.9 0.00 0.00 0.00 74 1007.8
20260505194548 28 195 8.0 25.7 0.00 0.00 0.00 74 1008.0
20260505194037 28 180 9.7 25.7 0.00 0.00 0.00 75 1007.9
20260505193536 28 205 6.4 19.3 0.00 0.00 0.00 75 1008.1
20260505193046 28 158 6.4 29.0 0.00 0.00 0.00 74 1008.1
20260505192538 28 168 6.4 29.0 0.00 0.00 0.00 77 1008.1
20260505192036 28 202 8.0 24.1 0.00 0.00 0.00 75 1008.2
20260505191550 28 190 6.4 25.7 0.00 0.00 0.00 75 1008.2
20260505191035 28 163 9.7 25.7 0.00 0.00 0.00 77 1008.1
20260505190536 27 169 8.0 25.7 0.00 0.00 0.00 78 1008.2
20260505190045 27 263 11.3 20.9 0.00 0.00 0.00 77 1008.3
20260505185537 27 206 4.8 19.3 0.00 0.00 0.00 77 1008.4
20260505185037 27 188 6.4 25.7 0.00 0.00 0.00 79 1008.5
20260505184551 27 188 8.0 25.7 0.00 0.00 0.00 78 1008.5
20260505184036 27 229 6.4 17.7 0.00 0.00 0.00 77 1008.6
20260505183537 27 166 4.8 12.9 0.00 0.00 0.00 79 1008.7
20260505183052 27 143 6.4 12.9 0.00 0.00 0.00 79 1008.7
20260505182538 27 166 4.8 14.5 0.00 0.00 0.00 79 1008.8
20260505182036 27 262 3.2 19.3 0.00 0.00 0.00 78 1008.8
20260505181547 27 205 8.0 19.3 0.00 0.00 0.00 79 1008.9
20260505181037 27 206 4.8 24.1 0.00 0.00 0.00 81 1008.9
20260505180541 26 211 6.4 24.1 0.00 0.00 0.00 79 1008.8
20260505180056 26 218 4.8 20.9 0.00 0.00 0.00 80 1008.8
20260505175540 26 221 8.0 20.9 0.00 0.00 0.00 81 1008.8
20260505175039 26 218 4.8 20.9 0.00 0.00 0.00 80 1008.9
20260505174548 26 172 4.8 24.1 0.00 0.00 0.00 81 1009.0
20260505174037 26 178 6.4 24.1 0.00 0.00 0.00 81 1009.0
20260505173537 26 209 8.0 24.1 0.00 0.00 0.00 81 1009.0
20260505173049 26 209 6.4 22.5 0.00 0.00 0.00 81 1009.0
20260505172536 26 180 9.7 20.9 0.00 0.00 0.00 81 1009.0
20260505172036 26 169 6.4 19.3 0.00 0.00 0.00 82 1009.0
20260505171556 26 186 8.0 17.7 0.00 0.00 0.00 82 1009.1
20260505171039 26 216 6.4 16.1 0.00 0.00 0.00 83 1009.2
20260505170537 25 211 4.8 16.1 0.00 0.00 0.00 83 1009.2
20260505170051 25 199 6.4 17.7 0.00 0.00 0.00 83 1009.3
20260505165541 25 177 4.8 17.7 0.00 0.00 0.00 83 1009.3
20260505165039 25 196 4.8 17.7 0.00 0.00 0.00 83 1009.3
20260505164549 25 192 4.8 17.7 0.00 0.00 0.00 83 1009.3
20260505164037 25 179 6.4 12.9 0.00 0.00 0.00 84 1009.3
20260505163537 25 167 4.8 24.1 0.00 0.00 0.00 84 1009.2
20260505163049 25 207 9.7 24.1 0.00 0.00 0.00 84 1009.2
20260505162536 25 206 6.4 20.9 0.00 0.00 0.00 84 1009.3
20260505162036 25 177 6.4 20.9 0.00 0.00 0.00 84 1009.3
20260505161547 25 174 8.0 19.3 0.00 0.00 0.00 84 1009.3
20260505161038 24 189 6.4 17.7 0.00 0.00 0.00 85 1009.4
20260505160537 24 153 6.4 19.3 0.00 0.00 0.00 85 1009.4
20260505153052 23 209 8.0 24.1 0.00 0.00 0.00 86 1009.4
20260505152537 23 163 8.0 24.1 0.00 0.00 0.00 86 1009.4
20260505152041 23 222 6.4 19.3 0.00 0.00 0.00 86 1009.3
20260505151549 23 175 6.4 19.3 0.00 0.00 0.00 86 1009.3
20260505151036 23 175 4.8 17.7 0.00 0.00 0.00 87 1009.3
20260505150536 23 161 8.0 17.7 0.00 0.00 0.00 87 1009.3
20260505140536 22 173 3.2 16.1 0.00 0.00 0.00 89 1009.2
20260505130103 21 240 4.8 16.1 0.00 0.00 0.00 89 1008.8
20260505125037 21 144 6.4 17.7 0.00 0.00 0.00 89 1008.7
20260505124602 21 211 6.4 17.7 0.00 0.00 0.00 89 1008.8
20260505124036 21 210 4.8 12.9 0.00 0.00 0.00 89 1009.0
20260505123536 21 208 4.8 16.1 0.00 0.00 0.00 89 1008.9
20260505123058 21 146 6.4 16.1 0.00 0.00 0.00 89 1008.9
20260505122535 21 227 4.8 14.5 0.00 0.00 0.00 89 1008.8
20260505122036 21 155 4.8 14.5 0.00 0.00 0.00 89 1008.8
20260505121552 21 200 4.8 17.7 0.00 0.00 0.00 89 1008.8
20260505121037 21 167 3.2 17.7 0.00 0.00 0.00 89 1008.7
20260505120537 21 179 6.4 17.7 0.00 0.00 0.00 89 1008.6
20260505120105 21 200 3.2 12.9 0.00 0.00 0.00 89 1008.5
20260505115536 21 171 4.8 14.5 0.00 0.00 0.00 89 1008.3
20260505115039 21 171 8.0 16.1 0.00 0.00 0.00 89 1008.4
20260505114556 21 167 6.4 16.1 0.00 0.00 0.00 89 1008.4
20260505114039 21 185 4.8 19.3 0.00 0.00 0.00 89 1008.2
20260505113540 21 191 6.4 19.3 0.00 0.00 0.00 89 1008.2
20260505113102 21 202 1.6 16.1 0.00 0.00 0.00 89 1008.2
20260505112539 21 175 3.2 16.1 0.00 0.00 0.00 89 1008.1
20260505112039 21 175 3.2 16.1 0.00 0.00 0.00 89 1008.3
20260505111554 21 186 4.8 17.7 0.00 0.00 0.00 89 1008.5
20260505111040 21 229 4.8 17.7 0.00 0.00 0.00 89 1008.5